Coastal Carolina

Airport
ICAO code: 
KEWN
Summary
ICAO Region: 
NAM
Territory: 
Location: 
New Bern, Craven County, North Carolina,
Serving: 
Craven County, Carteret County, Jones County, Pamlico County
Elevation: 
18 ft
Coordinates: 
Aerial View: 
35° 4' 23.969" N, 77° 2' 32.428" W
Airport WX: 
Tropical Revolving Storm
Metar
Observation
KEWN 040554Z AUTO 00000KT 9SM CLR 07/07 A3008 RMK AO2 SLP184 T00720067 10117 20067 58006
Station
New Bern, Craven County Regional Airport
Date/Time
2021-12-04 05:54:00
Wind direction
Wind speed
00 kts
Lowest cloud amount
n/a
Temperature
7.2°C
Dew point
6.7°C
Humidity
96%
Weather condition
n/a

Coastal Carolina Regional Airport is a public airport located 5 km southeast of central business district of New Bern, a town in Craven County, North Carolina, USA.

Climatology

Humid “subtropical” climate (Köppen climate classification Cfa) - characterized by hot, humid summers and cool winters. Significant amounts of precipitation occur in all seasons in most areas. Winter rainfall (and sometimes snowfall) is associated with large storms that the westerlies steer from west to east. Most summer rainfall occurs during thunderstorms and occasional tropical storms (hurricanes).

Runways

Designator Length Width Surface Rops
14/32 1219 46 ASPH-G Yes/Yes
4/22 1830 46 ASP Yes/Yes
Airport map: 
Aerial View: 

SKYbrary Partners:

Safety knowledge contributed by: